Regional Weather Roundup
Issued by NWS

Home | Current Version | Previous Version | Text Only | Print | Product List | Glossary On
Versions: 1 2 3 4 5 6 7 8 9 10 11 12 13 14 15 16 17 18 19 20 21 22 23 24 25 26 27 28 29 30 31 32 33 34 35 36 37 38 39 40 41 42 43 44 45 46 47 48 49 50
000
ASUS43 KOAX 231910
RWRNE

WEATHER ROUNDUP FOR NEBRASKA
NATIONAL WEATHER SERVICE OMAHA NE
200 PM CDT FRI JUN 23 2017

NOTES: SATELLITE DATA IS BEING USED TO AUGMENT CLOUD COVER ABOVE
       12000 FEET.
       "FAIR" INDICATES FEW OR NO CLOUDS BELOW 12,000 FEET WITH NO
       SIGNIFICANT WEATHER AND/OR OBSTRUCTIONS TO VISIBILITY.

  * THESE STATIONS DO NOT REPORT WEATHER SUCH AS RAIN...SNOW OR FOG.

NEZ001>004-019>022-054>056-232000-
NEBRASKA PANHANDLE

CITY           SKY/WX    TMP DP  RH WIND       PRES   REMARKS
SCOTTSBLUFF    SUNNY     71  33  24 NW13G21   30.21S
ALLIANCE       SUNNY     68  34  28 N17G26    30.19S
CHADRON        SUNNY     69  33  26 NW17G24   30.17F
GORDON         FAIR      65  41  42 N10G20    30.17F
KIMBALL        CLOUDY    63  44  50 NW6       30.26S
SIDNEY         CLOUDY    63  41  44 NW13      30.24F
$$

NEZ057>060-069>072-079>082-232000-
SOUTHWEST NEBRASKA

CITY           SKY/WX    TMP DP  RH WIND       PRES   REMARKS
NORTH PLATTE   SUNNY     76  41  28 NW14G21   30.14F
IMPERIAL       CLOUDY    69  40  34 NW13G20   30.19F
LEXINGTON      PTSUNNY   72  46  39 NW12G17   30.12S
MCCOOK         MOSUNNY   75  45  34 NW16      30.14S
OGALLALA       CLOUDY    71  35  26 W10G17    30.18F
$$

NEZ005>010-023>029-035>040-094-232000-
NORTH CENTRAL NEBRASKA

CITY           SKY/WX    TMP DP  RH WIND       PRES   REMARKS
VALENTINE      PTSUNNY   69  37  30 NW21G31   30.13F
AINSWORTH      PTSUNNY   67  44  43 N23G30    30.13S
BROKEN BOW     MOSUNNY   73  44  35 NW17G28   30.11F
O`NEILL        CLOUDY    66  48  51 N17G25    30.10S
ORD            MOSUNNY   73  44  35 N21G29    30.07F
THEDFORD       MOSUNNY   70  43  37 NW21      30.15S
$$

NEZ041-046>049-061>064-073>077-083>087-232000-
SOUTH CENTRAL NEBRASKA

CITY           SKY/WX    TMP DP  RH WIND       PRES   REMARKS
GRAND ISLAND   SUNNY     75  48  38 N16G26    30.08F
AURORA         SUNNY     73  48  41 NW12G26   30.06F
HASTINGS       MOSUNNY   72  48  42 NW14G25   30.09F
HEBRON         SUNNY     73  48  40 N15G23    30.06F
HOLDREGE       MOSUNNY   71  47  43 N14G20    30.10F
KEARNEY *      SUNNY     75  46  35 NW15      30.10F
YORK           SUNNY     72  48  43 NW15G21   30.05F
$$

NEZ011>018-030>034-042>045-232000-
NORTHEAST NEBRASKA

CITY           SKY/WX    TMP DP  RH WIND       PRES   REMARKS
NORFOLK        CLOUDY    70  49  47 NW21G28   30.03R
ALBION         PTSUNNY   74  47  38 N21G26    30.06S
BLAIR          PTSUNNY   70  52  53 NW15G23   30.01F
FREMONT        MOSUNNY   71  51  49 NW21      30.03F
TEKAMAH        MOSUNNY   73  51  46 NW16G23   30.00F
WAYNE          CLOUDY    70  49  47 NW21G26   30.03R
$$

NEZ050>053-065>068-078-088>093-232000-
SOUTHEAST NEBRASKA

CITY           SKY/WX    TMP DP  RH WIND       PRES   REMARKS
LINCOLN        SUNNY     74  49  41 N18G26    30.03F
OMAHA EPPLEY   PTSUNNY   72  52  49 NW22      30.00F
BEATRICE       MOSUNNY   72  54  52 NW15      30.03F
FALLS CITY     CLOUDY    72  52  49 N12G22    29.98F
NEBRASKA CITY  CLOUDY    70  56  61 NW17G23   30.01F
PLATTSMOUTH    PTSUNNY   70  52  52 NW15G22   30.01F
$$

NEZ044-045-051>053-067-232000-
OMAHA AREA

CITY           SKY/WX    TMP DP  RH WIND       PRES   REMARKS
OMAHA EPPLEY   PTSUNNY   72  52  49 NW22      30.00F
BLAIR          PTSUNNY   70  52  53 NW15G23   30.01F
FREMONT        MOSUNNY   71  51  49 NW21      30.03F
MILLARD        CLOUDY    72  54  53 NW12G21   30.01F
OFFUTT AFB     MOSUNNY   75  54  46 W12       30.01F
PLATTSMOUTH    PTSUNNY   70  52  52 NW15G22   30.01F
WAHOO          MOCLDY    72  49  43 N17G23    30.02F
$$




USA.gov is the U.S. government's official web portal to all federal, state and local government web resources and services.